Location: Newark
(51.0500°N, 12.4500°E)
Time: 01:11:01
(UTC+00:00)

Tiros 1 - Pass Details

Date: 20 February 2020
Orbit: 630 x 664 km, 48.4° (Epoch: 06 April)

Event Time Altitude Azimuth Distance (km) Brightness Sun altitude
Rises 08:37:13 0° 276° (W) 2,919 10.1 18.2°
Reaches altitude 10° 08:40:49 10° 247° (WSW) 2,010 9.6 18.5°
Maximum altitude 08:42:44 12° 222° (SW) 1,851 9.7 18.7°
Drops below altitude 10° 08:44:39 10° 197° (SSW) 2,011 10.2 18.9°
Sets 08:48:16 0° 169° (SSE) 2,921 11.6 19.3°
